Total_Precipitation_Accumulation
0.02 0.06 0.16 0.16 0.14 0.16 0.18 0.16 0.15 0.14 0.14 0.15 0.19 0.20 0.20 0.20 0.18 0.16 0.16 0.18 0.24 0.32 0.38 0.40 0.38 0.36 0.33 0.28 0.16 0.09 0.06 0.06 0.05 0.04 0.04 0.04 0.06 0.07 0.06 0.05 0.06 0.08 0.12
0.01 0.05 0.13 0.16 0.16 0.19 0.20 0.17 0.13 0.11 0.11 0.17 0.21 0.20 0.21 0.21 0.18 0.18 0.22 0.25 0.28 0.32 0.36 0.35 0.35 0.29 0.22 0.16 0.09 0.05 0.03 0.01 0.01 0.01 0.01 0.01 0.03 0.04 0.04 0.04 0.05 0.08 0.11
0.01 0.05 0.11 0.16 0.19 0.20 0.18 0.14 0.10 0.09 0.11 0.16 0.20 0.21 0.21 0.21 0.21 0.21 0.23 0.24 0.27 0.29 0.25 0.22 0.20 0.14 0.09 0.06 0.04 0.03 0.02 0.01 0.01 0.01 0.01 0.03 0.04 0.06 0.06 0.06 0.08 0.11 0.12
0.04 0.06 0.10 0.17 0.22 0.22 0.19 0.14 0.10 0.11 0.14 0.17 0.20 0.23 0.23 0.22 0.21 0.23 0.20 0.19 0.20 0.18 0.14 0.12 0.08 0.05 0.03 0.03 0.02 0.02 0.01 0.01 0.00 0.01 0.03 0.04 0.04 0.09 0.10 0.10 0.11 0.12 0.12
0.07 0.09 0.14 0.19 0.25 0.25 0.19 0.14 0.12 0.12 0.15 0.20 0.23 0.24 0.27 0.26 0.26 0.25 0.18 0.13 0.13 0.10 0.08 0.05 0.03 0.02 0.02 0.01 0.01 0.01 0.01 0.00 0.00 0.01 0.03 0.05 0.06 0.12 0.13 0.12 0.12 0.13 0.12
0.11 0.12 0.18 0.22 0.28 0.29 0.22 0.16 0.13 0.13 0.16 0.21 0.25 0.26 0.31 0.32 0.32 0.26 0.14 0.09 0.08 0.06 0.05 0.04 0.02 0.01 0.01 0.01 0.01 0.01 0.01 0.00 0.00 0.01 0.02 0.04 0.07 0.14 0.15 0.14 0.14 0.15 0.17
0.14 0.19 0.25 0.27 0.30 0.33 0.29 0.24 0.19 0.16 0.19 0.21 0.24 0.26 0.30 0.33 0.35 0.28 0.13 0.07 0.05 0.05 0.04 0.03 0.02 0.01 0.01 0.01 0.01 0.01 0.00 0.00 0.01 0.02 0.02 0.04 0.09 0.18 0.18 0.16 0.16 0.15 0.14
0.20 0.24 0.34 0.41 0.37 0.36 0.38 0.34 0.28 0.24 0.22 0.24 0.25 0.27 0.30 0.32 0.34 0.30 0.15 0.07 0.04 0.04 0.04 0.03 0.02 0.02 0.01 0.01 0.01 0.01 0.00 0.00 0.01 0.01 0.02 0.03 0.08 0.12 0.11 0.10 0.09 0.10 0.11
0.32 0.32 0.36 0.45 0.50 0.46 0.42 0.42 0.41 0.35 0.32 0.30 0.31 0.33 0.29 0.28 0.29 0.27 0.16 0.07 0.05 0.05 0.05 0.05 0.04 0.04 0.02 0.01 0.01 0.00 0.00 0.00 0.01 0.01 0.01 0.02 0.05 0.07 0.07 0.08 0.10 0.12 0.13
0.53 0.50 0.43 0.43 0.48 0.52 0.51 0.42 0.41 0.40 0.38 0.37 0.35 0.32 0.25 0.23 0.24 0.22 0.14 0.07 0.06 0.06 0.06 0.05 0.04 0.03 0.02 0.01 0.01 0.00 0.00 0.00 0.01 0.01 0.01 0.02 0.03 0.04 0.05 0.07 0.10 0.12 0.14
0.75 0.72 0.60 0.49 0.46 0.46 0.50 0.46 0.46 0.43 0.37 0.34 0.33 0.28 0.25 0.27 0.27 0.20 0.11 0.07 0.07 0.06 0.05 0.04 0.04 0.03 0.02 0.01 0.00 0.00 0.00 0.00 0.00 0.00 0.01 0.01 0.02 0.03 0.05 0.07 0.08 0.09 0.11
0.78 0.73 0.69 0.62 0.54 0.51 0.48 0.45 0.48 0.43 0.39 0.32 0.27 0.26 0.27 0.27 0.25 0.20 0.14 0.09 0.08 0.07 0.06 0.05 0.04 0.02 0.01 0.01 0.00 0.00 0.00 0.00 0.00 0.00 0.00 0.01 0.02 0.03 0.05 0.06 0.07 0.08 0.08
0.93 0.80 0.70 0.67 0.65 0.59 0.52 0.46 0.42 0.37 0.36 0.34 0.29 0.27 0.26 0.28 0.28 0.26 0.19 0.13 0.11 0.09 0.08 0.07 0.05 0.02 0.01 0.01 0.01 0.00 0.00 0.00 0.00 0.00 0.00 0.01 0.02 0.03 0.05 0.07 0.07 0.07 0.08
1.18 0.99 0.87 0.78 0.73 0.68 0.59 0.49 0.42 0.36 0.31 0.31 0.29 0.31 0.31 0.26 0.22 0.21 0.16 0.12 0.10 0.09 0.08 0.07 0.05 0.03 0.01 0.01 0.01 0.00 0.00 0.00 0.00 0.00 0.01 0.01 0.01 0.03 0.06 0.07 0.07 0.08 0.09
1.30 1.20 1.04 0.96 0.87 0.81 0.73 0.60 0.45 0.39 0.32 0.28 0.29 0.30 0.29 0.26 0.21 0.18 0.13 0.11 0.10 0.08 0.07 0.07 0.05 0.04 0.04 0.04 0.02 0.00 0.00 0.00 0.01 0.01 0.01 0.00 0.01 0.02 0.04 0.07 0.08 0.11 0.15
1.26 1.29 1.22 1.10 0.99 0.89 0.81 0.67 0.55 0.45 0.38 0.32 0.29 0.27 0.27 0.26 0.23 0.20 0.15 0.12 0.10 0.09 0.08 0.09 0.08 0.06 0.04 0.03 0.02 0.01 0.01 0.01 0.02 0.01 0.01 0.01 0.01 0.01 0.03 0.05 0.09 0.16 0.22
1.34 1.40 1.35 1.29 1.25 1.05 0.92 0.82 0.68 0.55 0.44 0.38 0.34 0.31 0.28 0.25 0.26 0.23 0.20 0.15 0.13 0.12 0.11 0.11 0.11 0.10 0.08 0.05 0.04 0.04 0.03 0.03 0.03 0.02 0.03 0.02 0.02 0.01 0.02 0.05 0.09 0.14 0.21
1.47 1.50 1.50 1.37 1.40 1.35 1.18 1.02 0.83 0.67 0.57 0.47 0.42 0.39 0.35 0.30 0.29 0.31 0.28 0.23 0.20 0.16 0.15 0.15 0.14 0.13 0.10 0.08 0.06 0.06 0.06 0.06 0.05 0.04 0.04 0.03 0.03 0.03 0.03 0.03 0.06 0.10 0.15
1.56 1.53 1.62 1.55 1.48 1.53 1.49 1.31 1.15 0.98 0.80 0.68 0.60 0.50 0.46 0.43 0.42 0.40 0.35 0.32 0.31 0.28 0.23 0.19 0.16 0.15 0.15 0.11 0.09 0.09 0.09 0.08 0.06 0.05 0.04 0.03 0.03 0.03 0.03 0.03 0.03 0.05 0.09
1.63 1.67 1.72 1.80 1.73 1.78 1.88 1.74 1.49 1.27 1.14 1.00 0.85 0.77 0.68 0.57 0.54 0.49 0.44 0.41 0.39 0.38 0.34 0.29 0.22 0.19 0.18 0.18 0.17 0.13 0.11 0.08 0.07 0.06 0.05 0.04 0.03 0.03 0.03 0.04 0.04 0.04 0.05
1.46 1.62 1.63 1.74 1.84 1.91 1.93 1.78 1.53 1.32 1.26 1.20 1.08 1.03 0.92 0.78 0.68 0.59 0.54 0.54 0.51 0.45 0.40 0.37 0.34 0.29 0.26 0.26 0.25 0.19 0.13 0.11 0.09 0.07 0.07 0.06 0.06 0.06 0.06 0.06 0.07 0.06 0.07
1.21 1.32 1.46 1.55 1.66 1.75 1.77 1.72 1.64 1.65 1.52 1.38 1.23 1.11 1.03 0.97 0.89 0.77 0.67 0.62 0.59 0.56 0.50 0.48 0.50 0.47 0.41 0.41 0.41 0.40 0.28 0.16 0.10 0.10 0.11 0.11 0.10 0.10 0.09 0.09 0.09 0.09 0.10
0.99 1.11 1.22 1.36 1.45 1.48 1.65 1.76 1.75 1.75 1.67 1.43 1.18 1.03 1.05 1.12 1.10 0.98 0.87 0.83 0.79 0.76 0.69 0.66 0.68 0.66 0.60 0.57 0.58 0.63 0.51 0.31 0.19 0.12 0.11 0.12 0.13 0.11 0.10 0.10 0.11 0.12 0.12
0.80 0.95 1.07 1.20 1.31 1.34 1.48 1.52 1.45 1.31 1.27 1.19 1.11 1.09 1.13 1.17 1.18 1.14 1.10 1.02 0.94 0.91 0.86 0.89 0.94 0.91 0.85 0.71 0.63 0.60 0.60 0.52 0.46 0.31 0.17 0.15 0.15 0.13 0.13 0.13 0.13 0.14 0.15
0.67 0.73 0.87 1.06 1.15 1.18 1.24 1.29 1.36 1.30 1.23 1.23 1.20 1.10 1.04 1.03 1.09 1.17 1.17 1.13 1.01 0.92 0.89 0.92 0.96 0.99 0.95 0.88 0.81 0.77 0.74 0.66 0.61 0.57 0.38 0.23 0.21 0.20 0.20 0.20 0.21 0.23 0.26
0.60 0.58 0.68 0.83 1.02 1.10 1.13 1.17 1.22 1.20 1.14 1.10 1.12 1.09 1.07 1.02 0.97 0.99 1.08 1.07 1.06 1.03 0.98 0.99 1.04 1.08 1.08 1.06 1.00 0.91 0.86 0.78 0.68 0.71 0.65 0.47 0.39 0.33 0.33 0.34 0.36 0.37 0.38